Regional Weather Roundup
Issued by NWS

Home | Current Version | Previous Version | Text Only | Print | Product List | Glossary Off
Versions: 1 2 3 4 5 6 7 8 9 10 11 12 13 14 15 16 17 18 19 20 21 22 23 24 25 26 27 28 29 30 31 32 33 34 35 36 37 38 39 40 41 42 43 44 45 46 47 48 49 50

000
ASUS43 KLOT 041112
RWRIL

ILLINOIS REGIONAL WEATHER ROUNDUP
NATIONAL WEATHER SERVICE CHICAGO/ROMEOVILLE IL
600 AM CDT TUE AUG 04 2015

NOTE: "FAIR" INDICATES FEW OR NO CLOUDS BELOW 12,000 FEET WITH NO
SIGNIFICANT WEATHER AND/OR OBSTRUCTIONS TO VISIBILITY.

* THESE STATIONS ARE NOT UNDER NWS QUALITY CONTROL. THEY ALSO MAY NOT
  REPORT WEATHER SUCH AS PRECIPITATION OR FOG.

ILZ001-002-007-009-015-016-024-041200-
NORTHWEST ILLINOIS

CITY           SKY/WX    TMP DP  RH WIND       PRES   REMARKS
MOLINE         CLEAR     59  55  87 SW3       29.98R
STERLING*      CLEAR     57  54  88 CALM      29.94R
SAVANNA*       CLEAR     55  53  94 CALM      29.96R
$$

ILZ003-004-008-010-011-017-018-041200-
NORTH CENTRAL ILLINOIS

CITY           SKY/WX    TMP DP  RH WIND       PRES   REMARKS
ROCKFORD       PTCLDY    57  53  86 S5        29.96R
FREEPORT*      CLEAR     55  53  94 SW3       29.97R
ROCHELLE*      CLEAR     51  50  97 CALM      29.97R
DE KALB*       CLEAR     58  54  88 CALM      29.97R
PERU*          CLEAR     60  55  83 W5        29.98R
$$

ILZ005-006-012>014-019>023-041200-
NORTHEAST ILLINOIS

CITY           SKY/WX    TMP DP  RH WIND       PRES   REMARKS
CHICAGO-OHARE  PTCLDY    61  55  81 W3        29.94R
CHICAGO-MIDWAY PTCLDY    65  55  70 CALM      29.94R
AURORA         CLEAR     55  52  89 CALM      29.95R
LANSING*       CLEAR     57  55  94 CALM      29.95R
JOLIET*        FAIR      56  55  98 CALM      29.96R
WAUKEGAN       CLEAR     58  55  90 SW3       29.93R
DUPAGE AIRPORT CLEAR     58  55  90 CALM      29.95R
KANKAKEE*      CLEAR     57  55  94 W3        29.97R
WHEELING       CLEAR     61  54  77 CALM      29.95R
MORRIS*        CLEAR     56  54  92 CALM      29.95R
ROMEOVILLE*    CLEAR     56  54  91 CALM      29.96R
NORTHERLY ISL    N/A     68  54  60 W6          N/A
$$

LMZ740>746-041200-
SOUTHERN LAKE MICHIGAN

STATION/POSITION SKY/WX   TEMP    WIND        PRES    VSBY  WAVE
                          AIR SEA DIR/SP/G                  HT/PER
                          (F)     (DEG/KT/KT) (MB)    (MI)  (FT/S)
HARRISON CRIB              69     280/  8/  9   N/A
BURNHAM HARBOR             68     270/  6/  8   N/A
CALUMET HARBOR             65     250/  2/  3   N/A
BURNS HARBOR               64     200/  4/  5 1013.9S
MICHIGAN CITY              64     160/  3/  4   N/A
MICHIGAN CITY 6N           72 73  300/  6/  8   N/A           2/ 4
ST. JOSEPH                 71 73  350/  6/  8   N/A           2/ 3
$$

ILZ025>027-034>036-040-047-049-050-058-095>099-041200-
WEST-CENTRAL ILLINOIS

CITY           SKY/WX    TMP DP  RH WIND       PRES   REMARKS
QUINCY         CLOUDY    66  62  87 CALM      29.99R
GALESBURG*     MOCLDY    56  55  97 CALM      29.98S
MACOMB*        PTCLDY    58  57  96 W3        30.00S
JACKSONVILLE*  CLOUDY    66  63  91 CALM      29.99R
PITTSFIELD*    CLOUDY    69  64  83 CALM      30.00R
$$

ILZ028>032-037-038-041>044-048-051>054-059>061-041200-
CENTRAL ILLINOIS

CITY           SKY/WX    TMP DP  RH WIND       PRES   REMARKS
PONTIAC        CLEAR     58  57  97 CALM      29.98R
BLOOMINGTON    CLEAR     64  56  75 NW5       29.99R
DECATUR        PTCLDY    64  60  87 CALM      29.99R
PEORIA         PTCLDY    63  57  81 CALM      29.98R
LACON*         CLEAR     58  55  92 CALM      29.97R
LINCOLN*       CLEAR     61  58  90 CALM      29.99R
SPRINGFIELD    PTCLDY    62  60  93 CALM      29.99R
TAYLORVILLE    CLOUDY    63  63 100 CALM      29.99R
$$

ILZ033-039-045-046-055>057-062-063-041200-
EAST-CENTRAL ILLINOIS

CITY           SKY/WX    TMP DP  RH WIND       PRES   REMARKS
CHAMPAIGN      CLEAR     58  55  90 SW5       29.99R
DANVILLE*      CLEAR     54  53  99 CALM      29.96R
RANTOUL*       CLEAR     58  56  94 CALM      29.98R
MATTOON        MOCLDY    66  60  81 CALM      29.98R
PARIS*         CLEAR     56  56  98 CALM      29.99R
$$

ILZ079-100>102-041200-
SOUTHWEST ILLINOIS

CITY           SKY/WX    TMP DP  RH WIND       PRES   REMARKS
ALTON          CLOUDY    69  65  86 CALM      29.98R
BELLEVILLE     CLOUDY    72  72  99 CALM      29.96R
CAHOKIA*       MOCLDY    74  69  85 CALM      29.97R
SPARTA*        PTCLDY    72  69  91 CALM      29.99R
$$

ILZ064>066-069>071-074>076-080>082-084>086-088>090-092>094-041200-
SOUTH-CENTRAL ILLINOIS

CITY           SKY/WX    TMP DP  RH WIND       PRES   REMARKS
CARBONDALE     PTCLDY    73  71  93 CALM      29.96R FOG
CAIRO*         PTCLDY    72  72 100 CALM      29.95S
EFFINGHAM*     MOCLDY    68  64  87 CALM      30.01R
MARION         PTCLDY    72  70  94 CALM      29.97S
MT. VERNON     CLOUDY    72  63  73 N8        29.99R
CENTRALIA*     CLOUDY    71  65  81 CALM      29.97F
SALEM*         CLOUDY    72  65  79 NE3       29.98S
METROPOLIS*    PTCLDY    72  72 100 CALM      29.96S FOG
$$

ILZ067-068-072-073-078-083-087-091-041200-
SOUTHEAST ILLINOIS

CITY           SKY/WX    TMP DP  RH WIND       PRES   REMARKS
LAWRENCEVILLE  MOCLDY    70  65  84 N3        29.98R
FLORA*         TSTM      70  65  84 E5        29.98R
FAIRFIELD*     CLOUDY    70  67  90 N3        29.96R
HARRISBURG*    MOCLDY    71  71 100 CALM      29.98R
ROBINSON*      PTCLDY    65  64  95 CALM      29.99R
CARMI*         CLOUDY    70  65  86 CALM      29.97R
$$

ABBREVIATIONS USED IN REMARKS
   TC - TEMPERATURE IN CELSIUS
  WCI - WIND CHILL INDEX
   HX - HEAT INDEX
  VSB - VISIBILITY
$$




USA.gov is the U.S. government's official web portal to all federal, state and local government web resources and services.